TimeEST,TemperatureF,Dew PointF,Humidity,Sea Level PressureIn,VisibilityMPH,Wind Direction,Wind SpeedMPH,Gust SpeedMPH,PrecipitationIn,Events,Conditions,WindDirDegrees,DateUTC
12:53 AM,25.0,12.9,60,30.42,10.0,South,10.4,19.6,N/A,,Overcast,190,2013-11-25 05:53:00
1:53 AM,24.1,15.1,69,30.41,10.0,SSW,9.2,16.1,N/A,,Overcast,200,2013-11-25 06:53:00
2:53 AM,21.9,15.1,75,30.42,8.0,SSW,11.5,23.0,0.00,Snow,Light Snow,200,2013-11-25 07:53:00
3:53 AM,21.9,15.1,75,30.40,9.0,SSW,15.0,21.9,0.00,Snow,Light Snow,200,2013-11-25 08:53:00
4:53 AM,23.0,16.0,74,30.40,10.0,SSW,10.4,19.6,0.00,,Overcast,200,2013-11-25 09:53:00
5:53 AM,23.0,15.1,72,30.39,10.0,SSW,17.3,23.0,0.00,,Overcast,200,2013-11-25 10:53:00
6:39 AM,24.8,12.2,59,30.35,10.0,SSW,16.1,23.0,N/A,,Overcast,200,2013-11-25 11:39:00
6:53 AM,24.1,10.9,57,30.39,10.0,SSW,15.0,23.0,N/A,,Overcast,200,2013-11-25 11:53:00
7:53 AM,21.9,10.9,63,30.39,10.0,SSW,18.4,23.0,N/A,,Partly Cloudy,200,2013-11-25 12:53:00
8:53 AM,23.0,10.9,60,30.38,10.0,South,17.3,26.5,N/A,,Clear,190,2013-11-25 13:53:00
9:53 AM,25.0,10.0,53,30.35,10.0,SSW,16.1,26.5,N/A,,Clear,200,2013-11-25 14:53:00
10:53 AM,27.0,8.1,45,30.31,10.0,South,18.4,32.2,N/A,,Clear,190,2013-11-25 15:53:00
11:53 AM,30.0,9.0,41,30.28,10.0,SSW,17.3,20.7,N/A,,Clear,200,2013-11-25 16:53:00
12:53 PM,33.1,8.1,35,30.24,10.0,South,15.0,21.9,N/A,,Clear,190,2013-11-25 17:53:00
1:53 PM,33.1,5.0,31,30.19,10.0,SSW,16.1,24.2,N/A,,Partly Cloudy,200,2013-11-25 18:53:00
2:53 PM,34.0,6.1,31,30.18,10.0,South,11.5,21.9,N/A,,Partly Cloudy,190,2013-11-25 19:53:00
3:53 PM,33.1,7.0,34,30.17,10.0,South,12.7,24.2,N/A,,Scattered Clouds,190,2013-11-25 20:53:00
4:53 PM,33.1,6.1,32,30.17,10.0,SSW,16.1,29.9,N/A,,Overcast,200,2013-11-25 21:53:00
5:53 PM,34.0,6.1,31,30.16,10.0,SSW,17.3,24.2,N/A,,Mostly Cloudy,210,2013-11-25 22:53:00
6:53 PM,33.1,7.0,34,30.15,10.0,SSW,17.3,23.0,N/A,,Scattered Clouds,200,2013-11-25 23:53:00
7:53 PM,33.1,12.9,43,30.15,10.0,SSW,18.4,24.2,N/A,,Overcast,210,2013-11-26 00:53:00
8:53 PM,32.0,19.0,59,30.17,10.0,SSW,19.6,29.9,0.00,Snow,Light Snow,210,2013-11-26 01:53:00
9:53 PM,30.0,21.9,72,30.16,9.0,SSW,17.3,23.0,0.00,Snow,Light Snow,210,2013-11-26 02:53:00
10:53 PM,30.9,23.0,72,30.16,9.0,SW,16.1,24.2,0.00,Snow,Light Snow,220,2013-11-26 03:53:00
11:53 PM,30.9,21.9,69,30.16,10.0,SSW,15.0,23.0,0.00,,Overcast,200,2013-11-26 04:53:00